This is the latest recevied weather packets stored in our database for station/object OE3PDB-3. If no packets are shown the sender has not sent any weather packets the latest 10 day(s).
| Time | Temp. | Humidity | Pressure | Rain* | Wind** | Luminosity | Snow |
|---|---|---|---|---|---|---|---|
| 1787604030 | 18.33° C | 53% | 1017.5 hPa | 0 mm | - | - | - |
| 1787603430 | 18.33° C | 52% | 1017.6 hPa | 0 mm | - | - | - |
| 1787602830 | 18.33° C | 52% | 1017.8 hPa | 0 mm | - | - | - |
| 1787602230 | 18.33° C | 52% | 1017.9 hPa | 0 mm | - | - | - |
| 1787601630 | 18.89° C | 52% | 1017.8 hPa | 0 mm | - | - | - |
| 1787601030 | 18.89° C | 52% | 1017.7 hPa | 0 mm | - | - | - |
| 1787600430 | 18.89° C | 52% | 1017.5 hPa | 0 mm | - | - | - |
| 1787599830 | 18.89° C | 51% | 1017.4 hPa | 0 mm | - | - | - |
| 1787599230 | 19.44° C | 51% | 1017.5 hPa | 0 mm | - | - | - |
| 1787598630 | 19.44° C | 50% | 1017.4 hPa | 0 mm | - | - | - |
| 1787598030 | 20° C | 50% | 1017.4 hPa | 0 mm | - | - | - |
| 1787597430 | 20° C | 50% | 1017.5 hPa | 0 mm | - | - | - |
| 1787596830 | 20° C | 49% | 1017.7 hPa | 0 mm | - | - | - |
| 1787596230 | 20.56° C | 49% | 1017.6 hPa | 0 mm | - | - | - |
| 1787595630 | 20.56° C | 48% | 1017.5 hPa | 0 mm | - | - | - |
| 1787595030 | 20.56° C | 48% | 1017.4 hPa | 0 mm | - | - | - |
| 1787594430 | 21.11° C | 47% | 1017.4 hPa | 0 mm | - | - | - |
| 1787593830 | 21.11° C | 47% | 1017.4 hPa | 0 mm | - | - | - |
| 1787593230 | 21.67° C | 47% | 1017.6 hPa | 0 mm | - | - | - |
| 1787592630 | 21.67° C | 46% | 1017.8 hPa | 0 mm | - | - | - |
| 1787592030 | 22.22° C | 45% | 1017.5 hPa | 0 mm | - | - | - |
| 1787591430 | 23.33° C | 44% | 1017.9 hPa | 0 mm | - | - | - |
| 1787590830 | 23.89° C | 41% | 1018 hPa | 0 mm | - | - | - |
| 1787590230 | 24.44° C | 40% | 1018 hPa | 0 mm | - | - | - |
| 1787589630 | 25° C | 39% | 1018 hPa | 0 mm | - | - | - |
* Rain latest hour (hover to see other rain measurements)
** Current wind speed in m/s (hover to see current wind gust speed)